User: anonymous   Login
Location: Calvatone
(45.1167°N, 10.4333°E)
Time: 07:26:27
(UTC+00:00)
Language:

AO-27 - Orbit

View from above orbital plane
View from above orbital plane
View from above satellite
View from above satellite

Ground track
Ground track

The orbit data is extracted from the following two-line orbital elements,

1 22825U 93061C   23333.71649897  .00000331  00000-0  14504-3 0  9997
2 22825  98.8199  19.1031 0007548 309.3164  50.7348 14.30387788574226
Epoch (UTC): 29 November 2023 17:11:45
Eccentricity: 0.0007548
inclination: 98.8199°
perigee height: 785 km
apogee height: 796 km
right ascension of ascending node: 19.1031°
argument of perigee: 309.3164°
revolutions per day: 14.30387788
mean anomaly at epoch: 50.7348°
orbit number at epoch: 57422

The dashed part of the orbit path shows where the satellite is in the earth's shadow,  

DLR